When you browse on this site, cookies collect data to enhance your experience and personalize the content and advertising you see.
Visit our Privacy Policy to learn more. By continuing to use the site, you agree to this use of cookies and data.
  • In United Kingdom
  • List of Countries
  • For 7 days
  • Water Temperature
  • Satellite Maps
  • Weather Map
  • Weather Widgets
  • user-avatar
    Login

    Hourly Weather Hobart

    Today, 25 April, Thursday

    Time Temperature Precipitation Wind Pressure Humidity
    00:00 +13°C° 0 mm 6 mps 745 mmHg 64%
    01:00 +12°C° 0 mm 7 mps 745 mmHg 64%
    02:00 +12°C° 0 mm 7 mps 745 mmHg 63%
    03:00 +13°C° 0 mm 6 mps 745 mmHg 62%
    04:00 +13°C° 0 mm 4 mps 744 mmHg 60%
    05:00 +12°C° 0 mm 3 mps 745 mmHg 64%
    06:00 +12°C° 0 mm 3 mps 745 mmHg 68%
    07:00 +11°C° 0 mm 3 mps 745 mmHg 72%
    08:00 +12°C° 0 mm 4 mps 745 mmHg 67%
    09:00 +13°C° 0 mm 4 mps 746 mmHg 63%
    10:00 +14°C° 0 mm 4 mps 745 mmHg 59%
    11:00 +14°C° 0 mm 4 mps 745 mmHg 58%
    12:00 +15°C° 0 mm 4 mps 744 mmHg 57%
    13:00 +15°C° 0 mm 5 mps 744 mmHg 55%
    14:00 +15°C° 0 mm 5 mps 743 mmHg 56%
    15:00 +15°C° 0 mm 5 mps 743 mmHg 56%
    16:00 +15°C° 0 mm 5 mps 742 mmHg 56%
    17:00 +14°C° 0 mm 5 mps 741 mmHg 59%
    18:00 +14°C° 0 mm 5 mps 741 mmHg 61%
    19:00 +13°C° 0 mm 5 mps 741 mmHg 64%
    20:00 +13°C° 0 mm 6 mps 740 mmHg 63%
    21:00 +13°C° 0 mm 6 mps 739 mmHg 61%
    22:00 +12°C° 0 mm 7 mps 738 mmHg 60%
    23:00 +12°C° 0 mm 7 mps 738 mmHg 60%

    Tomorrow, 26 April, Friday

    Time Temperature Precipitation Wind Pressure Humidity
    00:00 +12°C° 0 mm 8 mps 737 mmHg 60%
    01:00 +12°C° 0 mm 8 mps 737 mmHg 60%
    02:00 +10°C° 0.2 mm 8 mps 737 mmHg 62%
    03:00 +9°C° 0.2 mm 8 mps 737 mmHg 64%
    04:00 +6°C° 0.2 mm 8 mps 737 mmHg 65%
    05:00 +6°C° 0 mm 8 mps 737 mmHg 64%
    06:00 +6°C° 0 mm 8 mps 737 mmHg 62%
    07:00 +5°C° 0 mm 8 mps 738 mmHg 61%
    08:00 +6°C° 0 mm 8 mps 738 mmHg 60%
    09:00 +7°C° 0 mm 8 mps 738 mmHg 58%
    10:00 +7°C° 0 mm 8 mps 739 mmHg 57%
    11:00 +9°C° 0 mm 8 mps 739 mmHg 52%
    12:00 +8°C° 0 mm 9 mps 739 mmHg 48%
    13:00 +10°C° 0 mm 9 mps 740 mmHg 44%
    14:00 +9°C° 0 mm 8 mps 740 mmHg 46%
    15:00 +7°C° 0 mm 8 mps 741 mmHg 49%
    16:00 +7°C° 0 mm 8 mps 741 mmHg 52%
    17:00 +6°C° 0 mm 8 mps 742 mmHg 54%
    18:00 +5°C° 0 mm 7 mps 743 mmHg 57%
    19:00 +5°C° 0 mm 6 mps 744 mmHg 59%
    20:00 +4°C° 0 mm 6 mps 745 mmHg 61%
    21:00 +4°C° 0 mm 6 mps 745 mmHg 63%
    22:00 +4°C° 0 mm 6 mps 746 mmHg 65%
    23:00 +4°C° 0 mm 6 mps 746 mmHg 67%

    Day after tomorrow, 27 April, Saturday

    Time Temperature Precipitation Wind Pressure Humidity
    00:00 +5°C° 0 mm 5 mps 747 mmHg 69%
    01:00 +5°C° 0 mm 5 mps 747 mmHg 71%
    02:00 +5°C° 0 mm 5 mps 747 mmHg 71%
    03:00 +5°C° 0 mm 5 mps 747 mmHg 71%
    04:00 +5°C° 0 mm 5 mps 747 mmHg 72%
    05:00 +5°C° 0 mm 4 mps 747 mmHg 71%
    06:00 +6°C° 0 mm 4 mps 747 mmHg 71%
    07:00 +6°C° 0 mm 4 mps 747 mmHg 71%
    08:00 +7°C° 0 mm 4 mps 747 mmHg 68%
    09:00 +9°C° 0 mm 5 mps 747 mmHg 64%
    10:00 +10°C° 0 mm 6 mps 747 mmHg 61%
    11:00 +11°C° 0 mm 7 mps 746 mmHg 60%
    12:00 +12°C° 0 mm 7 mps 745 mmHg 59%
    13:00 +13°C° 0 mm 8 mps 745 mmHg 57%
    14:00 +12°C° 0 mm 8 mps 744 mmHg 58%
    15:00 +12°C° 0 mm 8 mps 744 mmHg 59%
    16:00 +12°C° 0 mm 8 mps 743 mmHg 61%
    17:00 +12°C° 0 mm 7 mps 743 mmHg 61%
    18:00 +12°C° 0 mm 7 mps 743 mmHg 62%
    19:00 +12°C° 0 mm 7 mps 743 mmHg 63%
    20:00 +11°C° 0 mm 7 mps 743 mmHg 64%
    21:00 +11°C° 0 mm 7 mps 743 mmHg 64%
    22:00 +11°C° 0 mm 6 mps 743 mmHg 64%
    23:00 +11°C° 0 mm 6 mps 743 mmHg 65%

    28 April, Sunday

    Time Temperature Precipitation Wind Pressure Humidity
    00:00 +11°C° 0 mm 7 mps 743 mmHg 66%
    01:00 +11°C° 0 mm 7 mps 742 mmHg 67%
    02:00 +11°C° 0.1 mm 7 mps 742 mmHg 69%
    03:00 +11°C° 0.1 mm 7 mps 742 mmHg 71%
    04:00 +11°C° 0.1 mm 7 mps 742 mmHg 74%
    05:00 +11°C° 0.2 mm 7 mps 742 mmHg 73%
    06:00 +11°C° 0.2 mm 7 mps 742 mmHg 73%
    07:00 +11°C° 0.2 mm 8 mps 743 mmHg 73%
    08:00 +12°C° 0.1 mm 8 mps 743 mmHg 67%
    09:00 +12°C° 0.1 mm 9 mps 744 mmHg 61%
    10:00 +13°C° 0.1 mm 9 mps 745 mmHg 55%
    11:00 +13°C° 0 mm 9 mps 745 mmHg 53%
    12:00 +13°C° 0 mm 8 mps 745 mmHg 51%
    13:00 +13°C° 0 mm 8 mps 745 mmHg 49%
    14:00 +12°C° 0 mm 7 mps 746 mmHg 51%
    15:00 +11°C° 0 mm 7 mps 746 mmHg 54%
    16:00 +10°C° 0 mm 6 mps 747 mmHg 57%
    17:00 +10°C° 0 mm 5 mps 748 mmHg 60%
    18:00 +9°C° 0 mm 5 mps 749 mmHg 64%
    19:00 +10°C° 0 mm 4 mps 749 mmHg 67%
    20:00 +9°C° 0 mm 3 mps 750 mmHg 71%
    21:00 +8°C° 0 mm 3 mps 750 mmHg 74%
    22:00 +7°C° 0 mm 2 mps 751 mmHg 78%
    23:00 +7°C° 0 mm 2 mps 751 mmHg 81%

    29 April, Monday

    Time Temperature Precipitation Wind Pressure Humidity
    00:00 +7°C° 0 mm 2 mps 751 mmHg 83%
    01:00 +6°C° 0 mm 2 mps 751 mmHg 86%
    02:00 +6°C° 0 mm 2 mps 751 mmHg 87%
    03:00 +6°C° 0 mm 2 mps 751 mmHg 89%
    04:00 +6°C° 0 mm 2 mps 751 mmHg 91%
    05:00 +6°C° 0 mm 2 mps 752 mmHg 90%
    06:00 +6°C° 0 mm 2 mps 752 mmHg 89%
    07:00 +6°C° 0 mm 2 mps 752 mmHg 89%
    08:00 +8°C° 0 mm 2 mps 752 mmHg 80%
    09:00 +12°C° 0 mm 2 mps 753 mmHg 72%
    10:00 +14°C° 0 mm 2 mps 753 mmHg 63%
    11:00 +16°C° 0 mm 2 mps 752 mmHg 59%
    12:00 +17°C° 0 mm 2 mps 752 mmHg 56%
    13:00 +18°C° 0 mm 2 mps 751 mmHg 52%
    14:00 +18°C° 0 mm 2 mps 751 mmHg 54%
    15:00 +17°C° 0 mm 2 mps 751 mmHg 56%
    16:00 +17°C° 0 mm 2 mps 750 mmHg 58%
    17:00 +15°C° 0 mm 2 mps 750 mmHg 67%
    18:00 +13°C° 0 mm 2 mps 750 mmHg 76%
    19:00 +11°C° 0 mm 1 mps 750 mmHg 85%
    20:00 +10°C° 0 mm 2 mps 750 mmHg 87%
    21:00 +9°C° 0 mm 2 mps 749 mmHg 89%
    22:00 +9°C° 0 mm 2 mps 749 mmHg 91%
    23:00 +9°C° 0 mm 2 mps 748 mmHg 88%

    30 April, Tuesday

    Time Temperature Precipitation Wind Pressure Humidity
    00:00 +9°C° 0 mm 3 mps 748 mmHg 84%
    01:00 +9°C° 0 mm 3 mps 747 mmHg 81%
    02:00 +9°C° 0 mm 3 mps 747 mmHg 77%
    03:00 +10°C° 0 mm 3 mps 746 mmHg 73%
    04:00 +10°C° 0 mm 4 mps 745 mmHg 69%
    05:00 +10°C° 0 mm 4 mps 745 mmHg 68%
    06:00 +11°C° 0 mm 4 mps 745 mmHg 68%
    07:00 +11°C° 0 mm 4 mps 745 mmHg 67%
    08:00 +13°C° 0 mm 4 mps 744 mmHg 60%
    09:00 +15°C° 0 mm 5 mps 744 mmHg 53%
    10:00 +16°C° 0 mm 5 mps 743 mmHg 46%
    11:00 +17°C° 0 mm 6 mps 743 mmHg 47%
    12:00 +17°C° 0 mm 6 mps 742 mmHg 48%
    13:00 +18°C° 0 mm 7 mps 741 mmHg 49%
    14:00 +19°C° 0 mm 6 mps 741 mmHg 52%
    15:00 +17°C° 0 mm 5 mps 741 mmHg 56%
    16:00 +17°C° 0 mm 5 mps 740 mmHg 60%
    17:00 +15°C° 0.3 mm 4 mps 741 mmHg 68%
    18:00 +13°C° 0.3 mm 4 mps 741 mmHg 77%
    19:00 +11°C° 0.3 mm 3 mps 741 mmHg 85%
    20:00 +11°C° 0 mm 3 mps 741 mmHg 82%
    21:00 +10°C° 0 mm 3 mps 742 mmHg 80%
    22:00 +10°C° 0 mm 3 mps 742 mmHg 77%
    23:00 +10°C° 0 mm 3 mps 742 mmHg 77%
    Show more